Date,TemperatureHighF,TemperatureAvgF,TemperatureLowF,DewpointHighF,DewpointAvgF,DewpointLowF,HumidityHigh,HumidityAvg,HumidityLow,PressureMaxIn,PressureMinIn,WindSpeedMaxMPH,WindSpeedAvgMPH,GustSpeedMaxMPH,PrecipitationSumIn
2013-3-1,71.4,71.0,70.5,57.9,57.4,57.0,64,62,61,30.12,30.08,23,10,29,0.00
2013-3-2,85.7,75.4,70.0,63.9,57.7,53.0,66,55,36,30.11,29.94,15,10,37,0.00
2013-3-3,85.9,75.0,70.8,65.5,58.2,54.3,68,56,38,30.09,30.02,15,10,41,0.00
2013-3-4,82.1,77.5,69.5,61.2,59.1,52.9,63,53,40,30.11,30.06,27,10,31,0.00
2013-3-5,77.4,77.4,77.4,59.5,59.5,59.5,54,54,54,30.09,30.09,10,10,14,0.00
2013-3-7,77.4,77.4,77.4,59.5,59.5,59.5,54,54,54,30.09,30.09,10,10,14,0.00
2013-3-9,74.5,73.2,72.0,67.2,62.8,61.2,78,70,66,29.92,29.89,4,2,20,0.00
2013-3-10,81.2,75.8,68.9,70.8,68.4,60.9,87,78,66,30.00,29.83,17,6,27,0.02
2013-3-11,79.0,72.9,64.1,68.3,65.4,58.5,90,78,67,30.05,29.94,7,3,13,0.13
2013-3-12,78.5,75.4,69.2,69.2,68.1,65.8,89,78,70,30.04,29.95,4,1,5,0.01
2013-3-13,78.9,73.5,66.8,66.9,63.6,59.7,78,71,65,30.04,29.95,6,3,13,0.00
2013-3-14,78.7,74.1,67.5,67.3,63.0,57.1,75,68,55,30.05,29.95,7,3,10,0.00
2013-3-15,76.8,74.1,70.6,68.8,67.1,62.7,87,79,71,29.98,29.91,9,4,13,0.00
2013-3-16,73.4,70.6,67.8,66.5,63.7,59.6,87,79,72,29.99,29.89,14,2,21,0.02
2013-3-17,77.5,71.7,67.3,63.5,59.5,55.0,77,66,51,30.00,29.90,9,3,14,0.00
2013-3-18,71.2,67.7,66.9,60.5,57.8,56.1,73,71,68,29.99,29.96,5,3,12,0.00
2013-3-19,77.6,72.0,64.3,65.3,58.9,52.2,71,64,53,30.01,29.92,9,4,12,0.00
2013-3-20,79.3,72.9,67.4,69.8,59.9,54.1,73,64,51,30.03,29.94,7,3,10,0.00
2013-3-21,79.3,74.1,68.4,70.7,63.5,58.2,78,70,62,30.03,29.96,8,4,13,0.00
2013-3-25,79.5,79.0,78.7,70.3,69.6,68.8,75,73,72,29.92,29.89,6,3,7,0.00
2013-3-26,79.3,74.8,69.2,70.8,66.8,62.4,84,76,68,30.01,29.91,7,2,11,0.00
2013-3-27,76.8,73.4,69.4,67.5,62.6,58.8,73,69,63,29.98,29.91,5,3,9,0.00
2013-3-28,78.3,74.0,70.6,65.6,61.6,56.1,73,66,55,29.98,29.92,6,4,18,0.00
2013-3-29,80.3,75.3,71.0,68.2,64.1,59.9,82,68,59,30.01,29.93,8,4,24,0.00
2013-3-30,78.7,73.7,67.8,69.1,65.5,60.9,81,76,66,30.03,29.93,6,2,9,0.00
2013-3-31,78.4,73.5,69.5,65.3,61.9,58.1,74,67,59,29.99,29.93,12,4,17,0.00